Regional Weather Roundup
Issued by NWS Austin/San Antonio, TX

Home | Current Version | Previous Version | Text Only | Print | Product List | Glossary On
Versions: 1 2 3 4 5 6 7 8 9 10 11 12 13 14 15 16 17 18 19 20 21 22 23 24 25 26 27 28 29 30 31 32 33 34 35 36 37 38 39 40 41 42 43 44 45 46 47 48 49 50
000
ASUS44 KEWX 211410
RWREWX
SOUTH TEXAS REGIONAL WEATHER ROUNDUP
NATIONAL WEATHER SERVICE AUSTIN/SAN ANTONIO TX
900 AM CDT SUN APR 21 2019

NOTE: "FAIR" INDICATED FEW OR NO CLOUDS BELOW 12,000 FEET WITH NO
SIGNIFICANT WEATHER AND/OR OBSTRUCTIONS TO VISIBILITY.

* - THESE STATIONS ARE NOT NWS OR FAA STATIONS...AND ARE NOT SUBJECT
    TO NWS AND FAA QUALITY CONTROL.

TXZ171-172-183>190-211500-
TEXAS HILL COUNTRY AND EDWARDS PLATEAU

CITY           SKY/WX    TMP DP  RH WIND       PRES   REMARKS
JUNCTION       CLOUDY    63  57  81 SW13      29.97R
*LLANO         SUNNY     66  57  72 S10G20    29.98S
BURNET         SUNNY     64  57  78 S12G20    29.98S
*HORSESHOE BAY SUNNY     67  57  71 S10G32    29.97S
*KERRVILLE     CLOUDY    61  58  88 S14       29.99R
*FREDERICKSBRG CLOUDY    62  56  81 S10       29.98S
*ROCKSPRINGS   FOG       59  57  94 S15G22    30.00R VSB 1/2
*BOERNE STAGE  CLOUDY    61  61 100 S10G20    30.01R
*CASTROVILLE   CLOUDY    63  62  96 SE6       30.00S
HONDO          CLOUDY    67  63  87 SE12      29.98R
*UVALDE        CLOUDY    63  61  95 SE7       29.98R
DEL RIO        CLOUDY    65  58  78 E13       29.92R
LAUGHLIN AFB   CLOUDY    63  58  84 SE13      29.93R
CARRIZO SPRGS  CLOUDY    64  61  88 SE9       29.94R
*FAITH RANCH   CLOUDY    68  63  83 SE15      29.94R
$$

TXZ173-191>194-202-209-217>225-228-211500-
CENTRAL AND SOUTH CENTRAL TEXAS

CITY           SKY/WX    TMP DP  RH WIND       PRES   REMARKS
GEORGETOWN     CLOUDY    62  59  90 S18G25    30.00R
AUSTIN/BERGSTM FOG       62  62 100 S10       30.00R VSB 1/4
AUSTIN/MABRY   CLOUDY    61  59  93 VRB7      30.00R
*AUSTIN/EXEC   CLOUDY    61  61 100 S9        30.00R FOG
*LAGO VISTA    PTSUNNY   63  60  90 S8G16     29.99R
SAN MARCOS     FOG       59  58  96 S6        30.01R VSB 1/4
NEW BRAUNFELS  FOG       60  59  96 E3        29.99S VSB 1/2
RANDOLPH AFB   PTSUNNY   63  62  97 S7        29.99S
PT SAN ANTONIO CLOUDY    65  63  95 SE10      29.97R
SAN ANTONIO    CLOUDY    64  61  90 S10       30.00R
STINSON FIELD  CLOUDY    64  59  83 SE6       29.98R
*LA GRANGE     SUNNY     67  66  97 S7        29.99S
*GIDDINGS      SUNNY     65  64  95 S8        30.02R
*GONZALES      CLOUDY    64  64 100 S7        30.00S FOG
$$

TXZ163>164-176>182-195>201-210>213-226-227-235-211500-
SOUTHEAST TEXAS

CITY           SKY/WX    TMP DP  RH WIND       PRES   REMARKS
COLLEGE STN    SUNNY     64  60  87 S13       30.02R
*BRYAN         SUNNY     65  62  90 SE10      30.03S
*CALDWELL      SUNNY     64  61  91 S12       30.02R
*CROCKETT        N/A     63  57  82 S9        30.07R
*BRENHAM       SUNNY     64  63  97 S8        30.03R
HUNTSVILLE     SUNNY     66  57  72 S9G17     30.03R
CONROE         SUNNY     65  62  90 S12       30.05R
HOUSTON BUSH   SUNNY     68  61  78 SE13      30.04S
HOUSTON HOBBY  FAIR      69  59  70 SE12      30.05R
*HOUSTON SW AP FAIR      67  61  83 S8        30.06R
PEARLAND       FAIR      69  62  78 SE9       30.06R
HOUSTON HOOKS  FAIR      66  60  81 SE10G17   30.04R
ELLINGTON FLD  SUNNY     70  59  68 SE10      30.06R
SUGAR LAND     FAIR      68  61  78 S10       30.04R
*HOUSTON EXEC  FAIR      66  63  88 S10       30.05R
*CLEVELAND MUN FAIR      65  62  89 S7        30.06S FOG
*WHARTON       SUNNY     66  62  85 SE7       30.05R
*COLUMBUS      FAIR      65  61  87 S6        30.04R
*EAGLE LAKE    SUNNY     64  61  88 S7        30.03
$$

TXZ214>216-236>238-211500-
THE UPPER TEXAS COAST

CITY           SKY/WX    TMP DP  RH WIND       PRES   REMARKS
*ORANGE        FAIR      67  62  83 S6        30.11R
PORT ARTHUR    FAIR      69  57  65 S12       30.08R
GALVESTON      FAIR      71  58  63 S15       30.07R
ANGLETON       FAIR      70  61  73 S12       30.05R
*BAY CITY      SUNNY     68  63  83 SE8       30.04R
PALACIOS       SUNNY     72  65  78 SE17      30.03R
$$

TXZ229>234-239>247-211500-
TEXAS COASTAL BEND AND RIO GRANDE PLAINS

CITY           SKY/WX    TMP DP  RH WIND       PRES   REMARKS
VICTORIA       SUNNY     69  65  86 SE14      30.01R
*BEEVILLE      SUNNY     69  64  85 SE8       29.98S
ROCKPORT       SUNNY     73  64  73 SE13G21   29.99R
*PORT ARANSAS  SUNNY     73  66  77 SE16G23   30.01R
*PORT LAVACA   SUNNY     73  68  84 SE14      30.02S
*INGLESIDE     SUNNY     74  66  75 S15G24    29.99R
CORPUS CHRISTI MOSUNNY   73  65  75 SE20      29.98R
CORPUS NAS     SUNNY     78  68  71 S18G25    29.98R
*ROBSTOWN      NOT AVBL
ALICE          SUNNY     70  65  84 SE17      29.96R
KINGSVILLE NAS SUNNY     74  65  73 SE16G26   29.96R
COTULLA        CLOUDY    67  62  84 S13G23    29.95R
LAREDO         PTSUNNY   70  63  78 SE18      29.93R
$$

TXZ248>255-211500-
DEEP SOUTH TEXAS

CITY           SKY/WX    TMP DP  RH WIND       PRES   REMARKS
BROWNSVILLE    FAIR      77  66  68 SE25      29.98R
PORT ISABEL    FAIR      75  64  68 SE21G28   29.96S
HARLINGEN      SUNNY     73  65  75 SE17G29   29.96R
*HEBBRONVILLE  CLOUDY    67  63  86 S15       29.96R
MCALLEN        MOSUNNY   75  65  70 SE23G31   29.93S
*WESLACO       PTSUNNY   73  65  75 S15G25    29.94
FALFURRIAS     SUNNY     72  63  74 SE13      29.96R
EDINBURG       PTSUNNY   74  67  76 SE18      29.95R
*ZAPATA        CLOUDY    71  63  75 SE13G23   29.93R
$$

TXZ213>215-236>238-242>244-246-247-251-254-255-211500-
CMAN STATIONS

STATION/POSITION TIME  TEMP    WIND        PRES    WAVE
                       AIR SEA DIR/SP/G            HT/PER
                 (UTC) (F)     (DEG/KT/KT) (MB)    (FT/S)
SABINE PASS      1342   69 71  160/ 12/ 15 1020.4
SEA RIM ST PARK  1400   69     170/  9/ 12 1018.8
NORTH JETTY/GLS  1342   69 68  160/ 16/ 18 1017.6
EAGLE POINT      1342   69 70  170/ 13/ 14 1017.9
MORGANS POINT    1342   69 70  150/  8/ 13 1017.7
PORT O`CONNOR    1342   70 71  140/ 16/ 19 1016.1
PORT ARANSAS     1400   72 71  140/ 20/ 21 1015.5
MALAQUITE BEACH  1342   74 73  130/ 20/ 22 1014.7
BAFFIN BAY       1342   72 71  130/ 17/ 23 1015.2
PORT ISABEL      1342   73 74  140/ 15/ 23 1015.3
$$




USA.gov is the U.S. government's official web portal to all federal, state and local government web resources and services.